TECHEDSAT 10

Last updated on March 16, 2021, 12:02 a.m. UTC

1 45917U 98067RQ  21074.19030243  .14537030  12173-4  22342-2 0  9998
2 45917  51.6119  62.4256 0002548 165.7704 194.3391 16.33306017 38253

Satellite is not in orbit.